Location: Haulchin
(50.3172°N, 3.4360°E)
Time: 05:23:25
(UTC+00:00)

Cosmos 2333 Rocket - Pass Details

Date: 18 August 2024
Orbit: 839 x 863 km, 70.8° (Epoch: 16 September)

Event Time Altitude Azimuth Distance (km) Brightness Sun altitude
Exits shadow 01:26:20 10° 277° (W) 2,497 4.5 -23.3°
Maximum altitude 01:30:32 21° 325° (NW) 1,875 4.3 -23.0°
Drops below altitude 10° 01:34:47 10° 12° (NNE) 2,515 5.7 -22.7°
Sets 01:37:56 0° 29° (NNE) 3,454 6.9 -22.4°
